Location: Campestrin
(46.4667°N, 11.7167°E)
Time: 09:57:49
(UTC+00:00)

COSMOS 2455 - Pass Details

Date: 18 April 2021
Orbit: 902 x 907 km, 67.1° (Epoch: 06 May)

Event Time Altitude Azimuth Distance (km) Brightness Sun altitude
Exits shadow 21:18:15 69° 96° (E) 971 2.7 -27.0°
Drops below altitude 10° 21:23:56 10° 37° (NE) 2,599 5.5 -27.5°
Sets 21:26:27 0° 35° (NE) 3,544 6.3 -27.7°
